This is the latest recevied weather packets stored in our database for station/object KK7ISX. If no packets are shown the sender has not sent any weather packets the latest 10 day(s).
| Time | Temp. | Humidity | Pressure | Rain* | Wind** | Luminosity | Snow |
|---|---|---|---|---|---|---|---|
| 1777114541 | 0.56° C | 71% | 1012.4 hPa | 0 mm | - | 0 W/m² | - |
| 1777114236 | 0° C | 72% | 1012.5 hPa | 0 mm | - | 0 W/m² | - |
| 1777113932 | 0° C | 72% | 1012.3 hPa | 0 mm | - | 0 W/m² | - |
| 1777113627 | 0° C | 72% | 1012.4 hPa | 0 mm | - | 0 W/m² | - |
| 1777113316 | 0° C | 72% | 1012.4 hPa | 0 mm | - | 0 W/m² | - |
| 1777113015 | 0° C | 72% | 1012.3 hPa | 0 mm | - | 0 W/m² | - |
| 1777112712 | 0° C | 73% | 1012.3 hPa | 0 mm | - | 0 W/m² | - |
| 1777112408 | 0° C | 73% | 1012.4 hPa | 0 mm | - | 0 W/m² | - |
| 1777112105 | 0° C | 73% | 1012.2 hPa | 0 mm | - | 0 W/m² | - |
| 1777111801 | -0.56° C | 75% | 1012.4 hPa | 0 mm | - | 0 W/m² | - |
| 1777111498 | 0° C | 75% | 1012.4 hPa | 0 mm | - | 0 W/m² | - |
| 1777111198 | 0° C | 74% | 1012.2 hPa | 0 mm | - | 0 W/m² | - |
| 1777110895 | 0° C | 73% | 1012.6 hPa | 0 mm | - | 0 W/m² | - |
| 1777110592 | -0.56° C | 77% | 1012.4 hPa | 0 mm | - | 0 W/m² | - |
| 1777110288 | -0.56° C | 77% | 1012.2 hPa | 0 mm | - | 0 W/m² | - |
| 1777109983 | 0° C | 75% | 1012.1 hPa | 0 mm | - | 0 W/m² | - |
| 1777109678 | 0° C | 73% | 1012.3 hPa | 0 mm | - | 0 W/m² | - |
| 1777109374 | 0° C | 75% | 1012.2 hPa | 0 mm | - | 0 W/m² | - |
| 1777109071 | 0° C | 74% | 1012.3 hPa | 0 mm | - | 0 W/m² | - |
| 1777108771 | 0° C | 74% | 1012.4 hPa | 0 mm | - | 0 W/m² | - |
| 1777108468 | 0° C | 73% | 1012.3 hPa | 0 mm | - | 0 W/m² | - |
| 1777108163 | 0° C | 72% | 1012.3 hPa | 0 mm | - | 0 W/m² | - |
| 1777107860 | 0.56° C | 71% | 1012.4 hPa | 0 mm | - | 0 W/m² | - |
| 1777107559 | 0.56° C | 73% | 1012.3 hPa | 0 mm | - | 0 W/m² | - |
| 1777107255 | 0.56° C | 70% | 1012.6 hPa | 0 mm | - | 0 W/m² | - |
* Rain latest hour (hover to see other rain measurements)
** Current wind speed in m/s (hover to see current wind gust speed)